Location: Namasale
(1.5000°N, 32.6167°E)
Time: 00:03:36
(UTC+00:00)

Vanguard 3 - Pass Details

Date: 06 December 2021
Orbit: 508 x 3260 km, 33.3° (Epoch: 27 January)

Event Time Altitude Azimuth Distance (km) Brightness Sun altitude
Rises 20:02:02 0° 221° (SW) 4,324 11.4 -58.1°
Reaches altitude 10° 20:04:32 10° 216° (SW) 3,644 10.8 -58.5°
Enters shadow 20:06:27 19° 210° (SSW) 3,191 10.4 -58.9°
